Weather History for Chillicothe, MO

Change the Weather History Date:

Friday, April 18, 2014

  Actual Average (KIRK) Record (KIRK)
Temperature  
Mean Temperature 48 °F 53 °F  
Max Temperature 68 °F 64 °F 85 °F (1925)
Min Temperature 30 °F 42 °F 21 °F (1983)
Degree Days  
Heating Degree Days 17 13  
Month to date heating degree days 276  
Since 1 July heating degree days 5563  
Cooling Degree Days 0 0  
Month to date cooling degree days 0  
Year to date cooling degree days 0  
Moisture  
Dew Point 36 °F    
Average Humidity 63    
Maximum Humidity 89    
Minimum Humidity 36    
Precipitation  
Precipitation 0.00 in 0.16 in 1.65 in (1970)
Month to date precipitation 1.89  
Year to date precipitation 7.24  
Sea Level Pressure  
Sea Level Pressure 30.29 in    
Wind  
Wind Speed 2 mph (SE)    
Max Wind Speed 8 mph    
Max Gust Speed 17 mph    
T = Trace of Precipitation, MM = Missing Value Source: NWS Daily Summary

Daily Weather History Graph

Daily Weather History Graph

Search for Another Location

Airport:

Trip Planner

Search our weather history database for the weather conditions in past years. The results will help you decide how hot, cold, wet, or windy it might be!

Date:

Astronomy

Apr. 18, 2014 Rise Set
Actual Time 6:32 AM CDT 7:55 PM CDT
Civil Twilight 6:04 AM CDT 8:23 PM CDT
Nautical Twilight 5:30 AM CDT 8:57 PM CDT
Astronomical Twilight 4:54 AM CDT 9:33 PM CDT
Moon 11:41 PM CDT (4/18) 8:55 AM CDT (4/18)
Length of Visible Light 14h 19m
Length of Day
13h 23m
Waning Gibbous, 87% of the Moon is Illuminated
Apr 18
Waning Gibbous
Apr 22
Last Quarter
Apr 29
New
May 6
First Quarter
May 14
Full

Hourly Weather History & Observations

Time (CDT) Temp. Dew Point Humidity Pressure Visibility Wind Dir Wind Speed Gust Speed Precip Events Conditions
12:52 AM 35.1 °F 30.0 °F 82% 30.32 in - Calm Calm - N/A   Unknown
1:52 AM 33.1 °F 28.9 °F 85% 30.32 in - Calm Calm - N/A   Unknown
2:52 AM 32.0 °F 28.0 °F 85% 30.32 in - Calm Calm - N/A   Unknown
3:52 AM 30.9 °F 28.0 °F 89% 30.32 in - Calm Calm - N/A   Unknown
4:52 AM 30.9 °F 28.0 °F 89% 30.33 in - Calm Calm - N/A   Unknown
5:52 AM 30.0 °F 27.0 °F 88% 30.34 in - Calm Calm - N/A   Unknown
6:52 AM 30.0 °F 27.0 °F 88% 30.36 in - Calm Calm - N/A   Unknown
7:52 AM 37.0 °F 33.1 °F 86% 30.38 in - Calm Calm - N/A   Unknown
8:52 AM 46.0 °F 37.9 °F 73% 30.38 in - Calm Calm - N/A   Unknown
9:52 AM 50.0 °F 37.9 °F 63% 30.36 in - East 3.5 mph - N/A   Unknown
10:52 AM 53.1 °F 37.0 °F 55% 30.37 in - Variable 3.5 mph - N/A   Unknown
11:52 AM 55.9 °F 37.9 °F 51% 30.35 in - SE 5.8 mph - N/A   Unknown
12:52 PM 60.1 °F 39.9 °F 47% 30.33 in - ESE 8.1 mph - N/A   Unknown
1:52 PM 62.1 °F 39.9 °F 44% 30.31 in - Variable 3.5 mph - N/A   Unknown
2:52 PM 64.0 °F 42.1 °F 45% 30.28 in - SE 8.1 mph 17.3 mph N/A   Unknown
3:52 PM 66.0 °F 42.1 °F 42% 30.25 in - SSE 5.8 mph - N/A   Unknown
4:52 PM 66.9 °F 41.0 °F 39% 30.23 in - Variable 4.6 mph - N/A   Unknown
5:52 PM 66.9 °F 39.0 °F 36% 30.21 in - SE 6.9 mph - N/A   Unknown
6:52 PM 66.9 °F 41.0 °F 39% 30.20 in - SSE 5.8 mph - N/A   Unknown
7:52 PM 64.0 °F 39.0 °F 40% 30.19 in - SSE 4.6 mph - N/A   Unknown
8:52 PM 55.0 °F 41.0 °F 59% 30.20 in - Calm Calm - N/A   Unknown
9:52 PM 51.1 °F 41.0 °F 68% 30.22 in - Calm Calm - N/A   Unknown
10:52 PM 55.9 °F 42.1 °F 60% 30.21 in - ESE 3.5 mph - N/A   Unknown
11:52 PM 54.0 °F 41.0 °F 62% 30.22 in - Calm Calm - N/A   Unknown